Regional Weather Roundup
Issued by NWS

Home | Current Version | Previous Version | Text Only | Print | Product List | Glossary Off
Versions: 1 2 3 4 5 6 7 8 9 10 11 12 13 14 15 16 17 18 19 20 21 22 23 24 25 26 27 28 29 30 31 32 33 34 35 36 37 38 39 40 41 42 43 44 45 46 47 48 49 50

000
ASUS43 KDTX 010001
RWRMI
MICHIGAN HOURLY REGIONAL WEATHER ROUNDUP
NATIONAL WEATHER SERVICE DETROIT/PONTIAC MI
700 PM EST SAT JAN 31 2015

NOTE: "FAIR" INDICATES FEW OR NO CLOUDS BELOW 12,000 FEET WITH NO
SIGNIFICANT WEATHER AND/OR OBSTRUCTION TO VISIBILITY.

MIZ047>049-052>055-059>063-066>070-074>076-081>083-010100-
SOUTHEAST LOWER MICHIGAN

CITY           SKY/WX    TMP DP  RH WIND       PRES   REMARKS
ADRIAN         MOCLDY    30  24  78 SW5       30.19S WCI  25
6HR MIN TEMP:  29; 6HR MAX TEMP:  35;

ALMA           CLOUDY    31  27  84 NW3       30.18R
6HR MIN TEMP:  31; 6HR MAX TEMP:  32;

ANN ARBOR      CLOUDY    33  23  66 SW7       30.17S WCI  27
BAD AXE        CLOUDY    28  24  87 CALM      30.17R
6HR MIN TEMP:  27; 6HR MAX TEMP:  29;

CARO           CLOUDY    30  25  79 CALM      30.16S
DETROIT CITY   CLOUDY    35  23  61 SW8       30.18S WCI  29
6HR MIN TEMP:  31; 6HR MAX TEMP:  35;

DETROIT        CLOUDY    33  24  69 S9        30.18F WCI  25
6HR MIN TEMP:  33; 6HR MAX TEMP:  35;

FLINT          CLOUDY    33  21  61 W3        30.18R
6HR MIN TEMP:  31; 6HR MAX TEMP:  33;

GROSSE ILE     CLOUDY    32  27  80 S8        30.17F WCI  25
HILLSDALE      MOCLDY    32  21  65 CALM      30.15S
HOWELL         CLOUDY    32  22  67 CALM      30.16S
6HR MIN TEMP:  31; 6HR MAX TEMP:  33;


CITY           SKY/WX    TMP DP  RH WIND       PRES   REMARKS
JACKSON        MOCLDY    31  21  66 SW3       30.16S
6HR MIN TEMP:  31; 6HR MAX TEMP:  35;

LAMBERTVILLE   MOCLDY    32  23  69 CALM      30.20S
LANSING        CLOUDY    32  23  69 NW3       30.17S
6HR MIN TEMP:  31; 6HR MAX TEMP:  33;

LAPEER         CLOUDY    31  21  66 CALM      30.17R
MASON          CLOUDY    32  22  66 CALM      30.16S
6HR MIN TEMP:  31; 6HR MAX TEMP:  34;

MONROE         MOCLDY    30  25  80 S5        30.18S WCI  25
MT. CLEMENS    CLOUDY    32  22  67 SW6       30.16R WCI  27
6HR MIN TEMP:  31; 6HR MAX TEMP:  34;

PONTIAC        CLOUDY    32  19  58 CALM      30.15S
6HR MIN TEMP:  29; 6HR MAX TEMP:  32;

PORT HOPE        N/A     28  21  75 W5        30.16R WCI  23
6HR MIN TEMP:  25; 6HR MAX TEMP:  29;

PORT HURON     CLOUDY    28  23  80 CALM      30.19S
TRI CITIES     CLOUDY    32  25  75 W5        30.18R WCI  27
6HR MIN TEMP:  30; 6HR MAX TEMP:  33;

TROY           CLOUDY    35  21  57 SW6       30.19R WCI  30
SAGINAW HB     CLOUDY    32  27  80 W6        30.17S WCI  26
$$
MIZ043>046-050>051-056>058-064>065-071>073-077>080-010100-
SOUTHWEST LOWER MICHIGAN

CITY           SKY/WX    TMP DP  RH WIND       PRES   REMARKS
BATTLE CREEK   MOCLDY    32  22  66 W5        30.17R WCI  27
6HR MIN TEMP:  31; 6HR MAX TEMP:  36;

BENTON HARBOR  CLOUDY    32  26  78 CALM      30.19R
6HR MIN TEMP:  32; 6HR MAX TEMP:  36;

BIG RAPIDS     CLOUDY    29  24  81 N3        30.17R
6HR MIN TEMP:  29; 6HR MAX TEMP:  31;

COLDWATER      MOCLDY    31  25  77 SW5       30.16S WCI  26
6HR MIN TEMP:  31; 6HR MAX TEMP:  35;

FREMONT        CLOUDY    29  22  75 N6        30.18R WCI  23
HOLLAND        CLOUDY    32  25  75 NW3       30.19R
6HR MIN TEMP:  32; 6HR MAX TEMP:  34;

GRAND RAPIDS   CLOUDY    31  24  75 W7        30.17S WCI  24
6HR MIN TEMP:  31; 6HR MAX TEMP:  33;

IONIA          CLOUDY    32  26  78 W7        30.16R WCI  26
KALAMAZOO      MOCLDY    31  22  69 W3        30.18R
6HR MIN TEMP:  31; 6HR MAX TEMP:  36;

LUDINGTON      CLOUDY    31  25  78 CALM      30.21R
6HR MIN TEMP:  31; 6HR MAX TEMP:  31;

MARSHALL       MOCLDY    29  21  73 CALM      30.16R
MOUNT PLEASANT CLOUDY    31  23  72 NW3       30.18R
6HR MIN TEMP:  31; 6HR MAX TEMP:  32;

MUSKEGON       CLOUDY    31  23  72 NW5       30.19R WCI  26
6HR MIN TEMP:  31; 6HR MAX TEMP:  33;

SOUTH HAVEN    CLOUDY    31  26  82 CALM      30.19R
$$
MIZ016>042-010100-
NORTHERN LOWER MICHIGAN

CITY           SKY/WX    TMP DP  RH WIND       PRES   REMARKS
ALPENA         FLURRIES  24  18  77 NW9       30.18R WCI  14
6HR MIN TEMP:  24; 6HR MAX TEMP:  27; 6HR PCP: TRACE;

BEAVER ISLAND  FLURRIES  19  13  76 CALM      30.25R
6HR MIN TEMP:  19; 6HR MAX TEMP:  26;

BELLAIRE       FLURRIES  24  17  74 N9        30.23R WCI  15
6HR MIN TEMP:  24; 6HR MAX TEMP:  28;

CADILLAC       CLOUDY    25  19  80 N5        30.15S WCI  19
CHARLEVOIX     CLOUDY    21  14  74 NW16G23   30.26R WCI   7
6HR MIN TEMP:  21; 6HR MAX TEMP:  27;

FRANKFORT      CLOUDY    27  21  79 N7        30.22R WCI  19
GAYLORD        FLURRIES  20  15  81 NW10      30.16R WCI   9
6HR MIN TEMP:  20; 6HR MAX TEMP:  23; 6HR PCP: TRACE;

GRAYLING       LGT SNOW  24  19  83 NW8       30.18R WCI  14
6HR MIN TEMP:  24; 6HR MAX TEMP:  26;

HARBOR SPRINGS LGT SNOW  21  15  78 N9        30.23R WCI  10
HOUGHTON LAKE  CLOUDY    24  18  77 NW6       30.17R WCI  17
6HR MIN TEMP:  24; 6HR MAX TEMP:  26;

MANISTEE       CLOUDY    27  18  69 NE5       30.21S WCI  21
OSCODA         CLOUDY    27  20  74 NW8       30.18R WCI  19
PELLSTON       CLOUDY    20  11  68 NW15G23   30.23R WCI   6
6HR MIN TEMP:  20; 6HR MAX TEMP:  26; 6HR PCP: TRACE;

TRAVERSE CITY  LGT SNOW  26  19  74 N12G21    30.21R WCI  16
6HR MIN TEMP:  26; 6HR MAX TEMP:  28; 6HR PCP: TRACE;

$$
MIZ007>008-015-010100-
EASTERN UPPER MICHIGAN

CITY           SKY/WX    TMP DP  RH WIND       PRES   REMARKS
KINROSS        CLOUDY    16  14  93 NW14G22   30.19R WCI   1
6HR MIN TEMP:  16; 6HR MAX TEMP:  25;

MACKINAC ISLAN FLURRIES  19  11  70 NW13G22   30.21R WCI   6
6HR MIN TEMP:  19; 6HR MAX TEMP:  26;

NEWBERRY       FLURRIES  15  10  82 NW8       30.22R WCI   4
6HR MIN TEMP:  15; 6HR MAX TEMP:  23;

S. S. MARIE    MOCLDY    14   5  67 NW12G23   30.20R WCI   0
6HR MIN TEMP:  14; 6HR MAX TEMP:  24; 6HR PCP:  0.01;

$$
MIZ004>006-011>014-085-010100-
CENTRAL UPPER MICHIGAN

CITY           SKY/WX    TMP DP  RH WIND       PRES   REMARKS
MANISTIQUE     FLURRIES  17  10  71 N8G16     30.26R WCI   7
ESCANABA       MOCLDY    18   7  62 N7G17     30.28R WCI   8
6HR MIN TEMP:  18; 6HR MAX TEMP:  27;

MENOMINEE      CLOUDY    25  18  74 E14       30.24R WCI  13
6HR MIN TEMP:  25; 6HR MAX TEMP:  28;

SAWYER-GWINN   LGT SNOW  12   7  79 N13       30.25R WCI  -3
$$
MIZ001>003-009>011-084-010100-
WESTERN UPPER MICHIGAN

CITY           SKY/WX    TMP DP  RH WIND       PRES   REMARKS
IRON MOUNTAIN  PTCLDY    16   6  65 N10       30.24R WCI   4
6HR MIN TEMP:  15; 6HR MAX TEMP:  25; 6HR PCP: TRACE;

HOUGHTON       LGT SNOW   9   2  73 NE13      30.30R WCI  -7
6HR MIN TEMP:   9; 6HR MAX TEMP:  17; 6HR PCP: TRACE;

COPPER HARBOR    N/A     12   6  77 NE23G32   30.34S WCI  -7
6HR MIN TEMP:  11; 6HR MAX TEMP:  18;

IRONWOOD       CLOUDY    16   9  73 NE5       30.25R WCI   9
6HR MIN TEMP:  16; 6HR MAX TEMP:  19;

$$

ABBREVIATIONS USED IN REMARKS
   TC - TEMPERATURE IN CELSIUS
  WCI - WIND CHILL INDEX
   HX - HEAT INDEX
  VSB - VISIBILITY




USA.gov is the U.S. government's official web portal to all federal, state and local government web resources and services.